QPF
0.04 0.05 0.05 0.07 0.07 0.07 0.08 0.08 0.08 0.07 0.08 0.09 0.11 0.14 0.13 0.13 0.14 0.16 0.15 0.17 0.17 0.17 0.15 0.15 0.16 0.15 0.15 0.15 0.16 0.16 0.18 0.21 0.19 0.15 0.16 0.18 0.20 0.20 0.20 0.18 0.16 0.13 0.10
0.03 0.04 0.04 0.06 0.06 0.06 0.06 0.05 0.06 0.06 0.06 0.07 0.11 0.12 0.13 0.14 0.16 0.17 0.17 0.16 0.17 0.17 0.16 0.17 0.15 0.16 0.20 0.19 0.19 0.19 0.20 0.21 0.21 0.20 0.21 0.20 0.17 0.14 0.14 0.14 0.11 0.09 0.09
0.02 0.03 0.03 0.04 0.04 0.04 0.04 0.04 0.04 0.04 0.04 0.05 0.07 0.08 0.09 0.09 0.10 0.12 0.14 0.15 0.15 0.14 0.14 0.15 0.13 0.16 0.19 0.20 0.21 0.19 0.17 0.15 0.16 0.17 0.16 0.14 0.10 0.09 0.10 0.10 0.09 0.09 0.08
0.03 0.03 0.04 0.04 0.03 0.04 0.04 0.03 0.03 0.03 0.03 0.03 0.04 0.05 0.05 0.05 0.06 0.07 0.07 0.08 0.11 0.11 0.10 0.10 0.10 0.13 0.16 0.16 0.16 0.15 0.14 0.12 0.14 0.14 0.13 0.12 0.10 0.10 0.11 0.11 0.12 0.11 0.10
0.04 0.03 0.04 0.04 0.04 0.04 0.03 0.03 0.03 0.03 0.03 0.05 0.05 0.05 0.05 0.06 0.05 0.06 0.07 0.08 0.10 0.08 0.07 0.06 0.07 0.09 0.09 0.10 0.12 0.12 0.12 0.12 0.12 0.13 0.13 0.13 0.11 0.11 0.11 0.12 0.11 0.12 0.12
0.02 0.02 0.02 0.03 0.03 0.04 0.04 0.04 0.04 0.04 0.04 0.05 0.04 0.05 0.06 0.05 0.06 0.07 0.08 0.10 0.09 0.08 0.09 0.09 0.08 0.07 0.06 0.07 0.09 0.09 0.10 0.11 0.12 0.13 0.13 0.12 0.12 0.12 0.13 0.13 0.13 0.13 0.11
0.01 0.01 0.01 0.01 0.01 0.02 0.03 0.04 0.04 0.04 0.05 0.05 0.05 0.04 0.03 0.04 0.05 0.06 0.07 0.08 0.08 0.09 0.09 0.10 0.10 0.08 0.07 0.06 0.07 0.08 0.09 0.09 0.09 0.10 0.11 0.11 0.12 0.14 0.15 0.15 0.14 0.14 0.12
0.02 0.01 0.01 0.01 0.01 0.01 0.01 0.02 0.03 0.03 0.03 0.03 0.03 0.03 0.03 0.04 0.04 0.03 0.03 0.02 0.03 0.04 0.05 0.06 0.08 0.07 0.05 0.06 0.06 0.07 0.07 0.08 0.09 0.09 0.09 0.09 0.09 0.09 0.09 0.09 0.09 0.09 0.09
0.01 0.01 0.01 0.01 0.01 0.01 0.01 0.02 0.02 0.02 0.02 0.02 0.02 0.03 0.03 0.03 0.02 0.01 0.01 0.02 0.02 0.02 0.03 0.04 0.05 0.05 0.05 0.07 0.08 0.07 0.07 0.08 0.08 0.08 0.07 0.06 0.05 0.05 0.05 0.06 0.07 0.08 0.09
0.01 0.00 0.00 0.00 0.01 0.01 0.01 0.01 0.01 0.02 0.01 0.02 0.03 0.03 0.03 0.02 0.02 0.02 0.02 0.03 0.05 0.04 0.04 0.05 0.07 0.08 0.10 0.10 0.09 0.07 0.06 0.07 0.08 0.08 0.07 0.06 0.05 0.05 0.04 0.04 0.05 0.07 0.07
0.01 0.01 0.00 0.00 0.00 0.01 0.01 0.01 0.02 0.02 0.02 0.01 0.01 0.02 0.02 0.02 0.02 0.03 0.03 0.03 0.05 0.05 0.05 0.04 0.05 0.08 0.09 0.10 0.11 0.10 0.09 0.07 0.06 0.05 0.05 0.05 0.05 0.05 0.05 0.05 0.05 0.05 0.05
0.01 0.01 0.00 0.00 0.00 0.00 0.01 0.01 0.01 0.01 0.02 0.02 0.01 0.01 0.03 0.04 0.04 0.04 0.04 0.02 0.03 0.03 0.04 0.03 0.02 0.04 0.04 0.04 0.04 0.05 0.05 0.04 0.04 0.04 0.04 0.04 0.04 0.04 0.04 0.04 0.04 0.03 0.04
0.01 0.01 0.00 0.00 0.00 0.01 0.01 0.01 0.01 0.01 0.01 0.01 0.01 0.01 0.02 0.07 0.11 0.10 0.07 0.04 0.03 0.03 0.03 0.03 0.02 0.02 0.01 0.01 0.01 0.01 0.01 0.01 0.01 0.02 0.02 0.02 0.02 0.02 0.02 0.03 0.03 0.03 0.03
0.01 0.01 0.01 0.01 0.01 0.01 0.01 0.01 0.01 0.01 0.01 0.01 0.01 0.01 0.01 0.04 0.09 0.12 0.10 0.07 0.04 0.03 0.02 0.02 0.01 0.01 0.00 0.00 0.00 0.00 0.00 0.01 0.01 0.01 0.02 0.02 0.02 0.02 0.03 0.03 0.04 0.04 0.04
0.01 0.01 0.01 0.01 0.01 0.01 0.01 0.00 0.01 0.01 0.01 0.01 0.01 0.01 0.01 0.01 0.03 0.05 0.06 0.06 0.05 0.03 0.02 0.01 0.01 0.01 0.01 0.01 0.01 0.01 0.02 0.02 0.02 0.02 0.01 0.02 0.01 0.01 0.02 0.02 0.02 0.03 0.04
0.00 0.00 0.00 0.00 0.00 0.00 0.00 0.00 0.00 0.00 0.00 0.00 0.01 0.01 0.01 0.00 0.01 0.01 0.01 0.01 0.01 0.02 0.02 0.02 0.02 0.01 0.01 0.02 0.02 0.02 0.01 0.01 0.01 0.01 0.01 0.01 0.01 0.02 0.02 0.02 0.02 0.03 0.04
0.00 0.00 0.00 0.00 0.00 0.00 0.00 0.00 0.00 0.00 0.00 0.00 0.00 0.00 0.00 0.00 0.00 0.00 0.00 0.00 0.00 0.00 0.00 0.00 0.01 0.01 0.01 0.00 0.00 0.00 0.00 0.00 0.00 0.00 0.01 0.01 0.01 0.01 0.01 0.02 0.02 0.02 0.02
0.01 0.01 0.00 0.00 0.00 0.00 0.00 0.00 0.00 0.00 0.00 0.00 0.00 0.00 0.00 0.00 0.00 0.00 0.00 0.00 0.00 0.00 0.00 0.01 0.01 0.01 0.00 0.00 0.00 0.00 0.00 0.00 0.00 0.00 0.00 0.00 0.00 0.00 0.01 0.01 0.02 0.02 0.01
0.00 0.00 0.00 0.00 0.00 0.00 0.00 0.00 0.00 0.00 0.00 0.00 0.00 0.00 0.00 0.00 0.00 0.00 0.00 0.00 0.01 0.01 0.01 0.01 0.01 0.01 0.00 0.00 0.00 0.00 0.00 0.00 0.00 0.00 0.00 0.00 0.00 0.00 0.01 0.01 0.02 0.02 0.01
0.00 0.01 0.01 0.00 0.00 0.00 0.00 0.00 0.00 0.00 0.00 0.00 0.00 0.00 0.00 0.00 0.01 0.00 0.00 0.00 0.00 0.01 0.01 0.01 0.01 0.01 0.00 0.00 0.00 0.00 0.00 0.00 0.00 0.00 0.00 0.00 0.00 0.00 0.00 0.01 0.01 0.01 0.01
0.02 0.02 0.02 0.01 0.00 0.00 0.00 0.00 0.00 0.00 0.00 0.00 0.00 0.00 0.00 0.00 0.01 0.01 0.00 0.00 0.00 0.00 0.00 0.01 0.01 0.00 0.00 0.00 0.00 0.00 0.00 0.00 0.00 0.00 0.00 0.00 0.00 0.00 0.00 0.00 0.00 0.01 0.00
0.03 0.03 0.02 0.01 0.01 0.01 0.00 0.00 0.00 0.00 0.00 0.00 0.00 0.00 0.00 0.00 0.00 0.00 0.00 0.01 0.01 0.01 0.01 0.01 0.00 0.00 0.00 0.00 0.00 0.00 0.00 0.00 0.00 0.00 0.00 0.00 0.00 0.00 0.00 0.00 0.00 0.00 0.00
0.02 0.02 0.01 0.01 0.01 0.02 0.02 0.02 0.02 0.02 0.01 0.01 0.00 0.00 0.00 0.00 0.00 0.00 0.00 0.00 0.00 0.00 0.00 0.00 0.00 0.00 0.00 0.00 0.00 0.00 0.00 0.00 0.00 0.00 0.00 0.00 0.00 0.00 0.00 0.00 0.00 0.00 0.00
0.01 0.01 0.01 0.02 0.02 0.02 0.02 0.01 0.01 0.00 0.00 0.00 0.00 0.00 0.00 0.00 0.00 0.00 0.00 0.00 0.00 0.00 0.00 0.00 0.00 0.00 0.00 0.00 0.00 0.00 0.00 0.00 0.00 0.00 0.00 0.00 0.00 0.00 0.00 0.00 0.00 0.00 0.00
0.01 0.01 0.00 0.00 0.00 0.00 0.00 0.00 0.00 0.00 0.00 0.00 0.00 0.00 0.00 0.00 0.00 0.00 0.00 0.00 0.00 0.00 0.00 0.00 0.00 0.00 0.00 0.00 0.00 0.00 0.00 0.00 0.00 0.00 0.00 0.00 0.00 0.00 0.00 0.00 0.00 0.00 0.00
0.00 0.00 0.00 0.00 0.00 0.00 0.00 0.00 0.00 0.00 0.00 0.00 0.00 0.00 0.00 0.00 0.00 0.00 0.00 0.00 0.00 0.00 0.00 0.00 0.00 0.00 0.00 0.00 0.00 0.00 0.00 0.00 0.00 0.00 0.00 0.00 0.00 0.00 0.00 0.00 0.00 0.00 0.00
MSLP
1012.58 1012.74 1012.92 1013.07 1013.18 1013.22 1013.18 1013.06 1012.88 1012.66 1012.43 1012.22 1012.07 1012.00 1012.02 1012.15 1012.39 1012.74 1013.18 1013.70 1014.29 1014.91 1015.54 1016.15 1016.71 1017.21 1017.64 1017.98 1018.24 1018.42 1018.54 1018.60 1018.61 1018.59 1018.54 1018.47 1018.38 1018.29 1018.21 1018.13 1018.09 1018.07 1018.09
1012.66 1012.79 1012.92 1013.05 1013.13 1013.16 1013.13 1013.03 1012.88 1012.68 1012.46 1012.25 1012.09 1011.99 1011.97 1012.05 1012.25 1012.55 1012.95 1013.43 1013.98 1014.56 1015.15 1015.72 1016.25 1016.72 1017.13 1017.46 1017.74 1017.96 1018.13 1018.26 1018.37 1018.45 1018.50 1018.52 1018.52 1018.50 1018.47 1018.44 1018.41 1018.41 1018.43
1012.82 1012.95 1013.07 1013.17 1013.25 1013.29 1013.28 1013.22 1013.11 1012.96 1012.78 1012.61 1012.45 1012.34 1012.30 1012.34 1012.48 1012.71 1013.05 1013.46 1013.94 1014.46 1014.99 1015.50 1015.97 1016.40 1016.77 1017.08 1017.35 1017.58 1017.79 1017.98 1018.15 1018.30 1018.43 1018.54 1018.62 1018.67 1018.70 1018.71 1018.73 1018.76 1018.82
1013.05 1013.20 1013.33 1013.43 1013.52 1013.58 1013.60 1013.59 1013.54 1013.46 1013.35 1013.22 1013.10 1013.00 1012.95 1012.95 1013.04 1013.21 1013.47 1013.81 1014.21 1014.65 1015.10 1015.55 1015.96 1016.34 1016.66 1016.95 1017.20 1017.42 1017.64 1017.85 1018.05 1018.25 1018.43 1018.60 1018.73 1018.84 1018.93 1019.01 1019.08 1019.16 1019.27
1013.31 1013.50 1013.65 1013.77 1013.87 1013.95 1014.02 1014.06 1014.09 1014.08 1014.05 1014.00 1013.93 1013.86 1013.81 1013.80 1013.84 1013.96 1014.15 1014.42 1014.74 1015.11 1015.50 1015.89 1016.25 1016.57 1016.86 1017.11 1017.34 1017.54 1017.75 1017.95 1018.16 1018.37 1018.57 1018.77 1018.94 1019.09 1019.23 1019.36 1019.49 1019.64 1019.81
1013.57 1013.81 1013.99 1014.12 1014.23 1014.34 1014.44 1014.54 1014.64 1014.71 1014.77 1014.79 1014.79 1014.77 1014.75 1014.73 1014.76 1014.84 1014.98 1015.19 1015.46 1015.78 1016.12 1016.47 1016.80 1017.09 1017.36 1017.58 1017.78 1017.95 1018.13 1018.31 1018.49 1018.69 1018.89 1019.08 1019.27 1019.45 1019.62 1019.79 1019.98 1020.18 1020.42
1013.78 1014.07 1014.27 1014.42 1014.54 1014.66 1014.80 1014.95 1015.11 1015.26 1015.40 1015.51 1015.59 1015.62 1015.64 1015.65 1015.67 1015.73 1015.85 1016.03 1016.28 1016.57 1016.89 1017.22 1017.53 1017.82 1018.06 1018.27 1018.44 1018.59 1018.73 1018.87 1019.02 1019.18 1019.36 1019.54 1019.72 1019.91 1020.10 1020.31 1020.53 1020.78 1021.06
1013.94 1014.26 1014.47 1014.63 1014.75 1014.89 1015.04 1015.24 1015.45 1015.68 1015.90 1016.10 1016.24 1016.35 1016.41 1016.45 1016.50 1016.57 1016.68 1016.85 1017.09 1017.38 1017.70 1018.02 1018.34 1018.63 1018.88 1019.07 1019.23 1019.35 1019.45 1019.55 1019.66 1019.78 1019.92 1020.08 1020.25 1020.43 1020.64 1020.86 1021.10 1021.38 1021.68
1014.06 1014.39 1014.60 1014.76 1014.89 1015.03 1015.21 1015.43 1015.70 1015.99 1016.28 1016.55 1016.77 1016.93 1017.05 1017.13 1017.21 1017.30 1017.42 1017.60 1017.84 1018.13 1018.46 1018.80 1019.13 1019.42 1019.67 1019.86 1020.00 1020.09 1020.17 1020.23 1020.29 1020.38 1020.48 1020.61 1020.77 1020.95 1021.16 1021.38 1021.64 1021.91 1022.22
1014.17 1014.49 1014.71 1014.86 1014.99 1015.14 1015.34 1015.59 1015.90 1016.25 1016.60 1016.93 1017.21 1017.43 1017.60 1017.72 1017.83 1017.94 1018.08 1018.26 1018.51 1018.80 1019.13 1019.47 1019.80 1020.10 1020.34 1020.52 1020.64 1020.72 1020.76 1020.80 1020.83 1020.88 1020.97 1021.08 1021.22 1021.40 1021.60 1021.82 1022.07 1022.34 1022.62
1014.32 1014.63 1014.83 1014.98 1015.12 1015.28 1015.51 1015.80 1016.15 1016.54 1016.94 1017.32 1017.65 1017.91 1018.12 1018.27 1018.40 1018.52 1018.66 1018.85 1019.09 1019.37 1019.69 1020.02 1020.33 1020.61 1020.84 1021.00 1021.10 1021.16 1021.19 1021.20 1021.22 1021.25 1021.32 1021.43 1021.56 1021.73 1021.93 1022.14 1022.37 1022.61 1022.86
1014.53 1014.82 1015.02 1015.17 1015.33 1015.52 1015.77 1016.10 1016.49 1016.91 1017.35 1017.77 1018.13 1018.43 1018.66 1018.83 1018.96 1019.08 1019.22 1019.39 1019.60 1019.85 1020.14 1020.43 1020.71 1020.96 1021.16 1021.30 1021.38 1021.42 1021.44 1021.44 1021.45 1021.48 1021.55 1021.65 1021.79 1021.96 1022.14 1022.34 1022.55 1022.76 1022.96
1014.80 1015.07 1015.28 1015.44 1015.63 1015.85 1016.15 1016.51 1016.94 1017.40 1017.87 1018.31 1018.69 1019.00 1019.23 1019.40 1019.53 1019.63 1019.74 1019.88 1020.05 1020.26 1020.49 1020.73 1020.97 1021.17 1021.33 1021.44 1021.51 1021.54 1021.55 1021.56 1021.57 1021.62 1021.69 1021.80 1021.94 1022.10 1022.28 1022.46 1022.64 1022.81 1022.97
1015.11 1015.37 1015.58 1015.78 1016.00 1016.27 1016.61 1017.01 1017.48 1017.97 1018.45 1018.90 1019.29 1019.59 1019.82 1019.98 1020.08 1020.16 1020.23 1020.32 1020.44 1020.59 1020.77 1020.95 1021.13 1021.29 1021.42 1021.50 1021.56 1021.59 1021.60 1021.62 1021.66 1021.72 1021.81 1021.93 1022.07 1022.23 1022.39 1022.55 1022.70 1022.84 1022.96
1015.39 1015.65 1015.88 1016.11 1016.38 1016.70 1017.09 1017.54 1018.03 1018.54 1019.04 1019.48 1019.86 1020.15 1020.36 1020.49 1020.57 1020.61 1020.65 1020.69 1020.76 1020.86 1020.98 1021.11 1021.24 1021.36 1021.46 1021.54 1021.59 1021.63 1021.67 1021.71 1021.77 1021.85 1021.96 1022.09 1022.23 1022.38 1022.53 1022.66 1022.78 1022.89 1022.97
1015.60 1015.86 1016.11 1016.39 1016.71 1017.09 1017.52 1018.01 1018.53 1019.05 1019.54 1019.98 1020.34 1020.61 1020.79 1020.90 1020.94 1020.96 1020.96 1020.96 1020.99 1021.05 1021.13 1021.22 1021.33 1021.43 1021.52 1021.60 1021.67 1021.74 1021.80 1021.87 1021.96 1022.07 1022.19 1022.32 1022.46 1022.60 1022.72 1022.83 1022.92 1022.99 1023.05
1015.69 1015.97 1016.25 1016.57 1016.95 1017.37 1017.86 1018.37 1018.91 1019.43 1019.92 1020.34 1020.67 1020.91 1021.07 1021.15 1021.17 1021.16 1021.14 1021.13 1021.13 1021.17 1021.23 1021.31 1021.41 1021.51 1021.62 1021.72 1021.82 1021.91 1022.01 1022.12 1022.24 1022.36 1022.50 1022.63 1022.76 1022.87 1022.97 1023.06 1023.12 1023.16 1023.20
1015.70 1015.98 1016.30 1016.67 1017.09 1017.56 1018.07 1018.62 1019.16 1019.68 1020.15 1020.54 1020.84 1021.06 1021.19 1021.24 1021.25 1021.23 1021.20 1021.18 1021.19 1021.22 1021.29 1021.38 1021.50 1021.62 1021.76 1021.89 1022.02 1022.16 1022.29 1022.43 1022.57 1022.71 1022.85 1022.97 1023.09 1023.18 1023.26 1023.31 1023.35 1023.38 1023.39
1015.66 1015.96 1016.30 1016.70 1017.16 1017.66 1018.20 1018.76 1019.30 1019.80 1020.25 1020.61 1020.89 1021.07 1021.18 1021.22 1021.22 1021.19 1021.17 1021.16 1021.18 1021.24 1021.33 1021.45 1021.60 1021.76 1021.93 1022.11 1022.28 1022.45 1022.61 1022.77 1022.93 1023.07 1023.20 1023.31 1023.40 1023.47 1023.53 1023.56 1023.58 1023.60 1023.61
1015.64 1015.95 1016.32 1016.74 1017.22 1017.74 1018.29 1018.84 1019.37 1019.85 1020.26 1020.60 1020.84 1021.00 1021.09 1021.12 1021.12 1021.10 1021.10 1021.11 1021.16 1021.25 1021.38 1021.54 1021.73 1021.93 1022.14 1022.35 1022.56 1022.75 1022.94 1023.11 1023.26 1023.39 1023.51 1023.60 1023.67 1023.72 1023.75 1023.77 1023.79 1023.79 1023.81
1015.73 1016.04 1016.40 1016.83 1017.31 1017.83 1018.37 1018.90 1019.41 1019.86 1020.24 1020.54 1020.76 1020.90 1020.97 1021.00 1021.00 1021.01 1021.02 1021.07 1021.16 1021.29 1021.46 1021.66 1021.89 1022.13 1022.38 1022.62 1022.85 1023.06 1023.24 1023.41 1023.55 1023.66 1023.75 1023.82 1023.86 1023.90 1023.92 1023.93 1023.94 1023.96 1023.97
1015.96 1016.24 1016.58 1016.99 1017.45 1017.95 1018.46 1018.96 1019.43 1019.85 1020.20 1020.47 1020.66 1020.79 1020.85 1020.89 1020.91 1020.93 1020.98 1021.06 1021.19 1021.36 1021.57 1021.82 1022.08 1022.36 1022.63 1022.89 1023.13 1023.34 1023.52 1023.67 1023.79 1023.87 1023.93 1023.97 1024.00 1024.02 1024.03 1024.04 1024.06 1024.09 1024.11
1016.30 1016.54 1016.85 1017.21 1017.63 1018.08 1018.55 1019.01 1019.44 1019.82 1020.13 1020.38 1020.56 1020.67 1020.75 1020.79 1020.84 1020.89 1020.97 1021.09 1021.26 1021.48 1021.73 1022.01 1022.31 1022.61 1022.91 1023.18 1023.42 1023.62 1023.79 1023.91 1024.00 1024.06 1024.08 1024.10 1024.10 1024.10 1024.11 1024.13 1024.15 1024.19 1024.23
1016.70 1016.89 1017.13 1017.44 1017.79 1018.19 1018.60 1019.00 1019.39 1019.73 1020.02 1020.25 1020.42 1020.54 1020.63 1020.70 1020.77 1020.87 1020.99 1021.15 1021.36 1021.61 1021.90 1022.22 1022.55 1022.88 1023.18 1023.46 1023.70 1023.90 1024.05 1024.15 1024.21 1024.23 1024.23 1024.22 1024.20 1024.19 1024.19 1024.21 1024.24 1024.29 1024.34
1017.06 1017.18 1017.35 1017.59 1017.87 1018.20 1018.55 1018.90 1019.24 1019.55 1019.82 1020.04 1020.22 1020.36 1020.48 1020.59 1020.70 1020.83 1021.00 1021.21 1021.46 1021.75 1022.07 1022.42 1022.77 1023.12 1023.44 1023.73 1023.97 1024.16 1024.29 1024.38 1024.41 1024.42 1024.39 1024.35 1024.32 1024.29 1024.28 1024.29 1024.32 1024.37 1024.42
1017.30 1017.35 1017.45 1017.61 1017.83 1018.09 1018.38 1018.69 1018.99 1019.28 1019.54 1019.77 1019.96 1020.13 1020.29 1020.43 1020.59 1020.77 1020.98 1021.23 1021.52 1021.84 1022.20 1022.57 1022.95 1023.31 1023.65 1023.95 1024.20 1024.39 1024.52 1024.59 1024.61 1024.60 1024.56 1024.50 1024.44 1024.40 1024.37 1024.36 1024.38 1024.41 1024.45
Thickness
5774 5771 5769 5766 5764 5762 5759 5758 5756 5755 5754 5753 5752 5751 5750 5749 5748 5746 5744 5743 5741 5739 5738 5736 5735 5734 5733 5732 5731 5729 5726 5722 5715 5716 5718 5718 5717 5715 5713 5711 5710 5707 5704
5773 5769 5766 5763 5761 5758 5755 5754 5752 5751 5750 5749 5747 5746 5745 5744 5743 5741 5739 5738 5736 5733 5732 5731 5730 5729 5728 5727 5725 5723 5721 5719 5714 5709 5710 5710 5709 5708 5706 5704 5702 5699 5697
5771 5766 5762 5759 5756 5753 5751 5749 5748 5746 5745 5744 5743 5741 5740 5739 5738 5736 5734 5732 5730 5728 5727 5725 5724 5723 5721 5720 5718 5716 5715 5714 5711 5706 5703 5702 5701 5700 5697 5695 5693 5691 5689
5767 5763 5758 5755 5752 5750 5747 5745 5743 5741 5739 5737 5736 5735 5733 5732 5731 5729 5727 5726 5724 5722 5720 5719 5717 5716 5714 5713 5712 5710 5708 5706 5704 5700 5696 5693 5692 5691 5688 5684 5681 5680 5679
5763 5758 5754 5751 5749 5746 5743 5740 5738 5736 5733 5731 5729 5727 5726 5725 5722 5720 5720 5718 5716 5713 5712 5711 5710 5708 5706 5704 5703 5701 5700 5697 5695 5691 5688 5685 5682 5680 5677 5676 5672 5670 5669
5758 5753 5750 5747 5744 5741 5738 5735 5732 5730 5727 5724 5721 5719 5717 5715 5712 5712 5711 5708 5706 5704 5703 5702 5701 5699 5697 5695 5693 5692 5690 5688 5685 5682 5679 5674 5671 5670 5668 5667 5663 5660 5657
5753 5749 5746 5742 5739 5736 5734 5730 5726 5723 5720 5717 5714 5711 5708 5705 5703 5703 5702 5700 5698 5696 5694 5692 5692 5690 5688 5685 5683 5682 5680 5678 5677 5674 5669 5665 5662 5661 5659 5657 5653 5650 5647
5748 5744 5740 5737 5733 5730 5726 5723 5719 5717 5713 5710 5707 5704 5701 5697 5695 5694 5694 5693 5690 5687 5685 5683 5681 5678 5677 5676 5674 5671 5668 5666 5665 5663 5660 5655 5653 5651 5650 5648 5645 5641 5639
5743 5739 5735 5731 5727 5723 5719 5716 5713 5710 5706 5703 5699 5696 5693 5689 5687 5687 5686 5685 5681 5678 5675 5672 5670 5668 5667 5666 5664 5661 5658 5655 5653 5651 5649 5646 5643 5641 5639 5637 5634 5631 5627
5737 5733 5729 5725 5721 5716 5713 5710 5707 5703 5699 5696 5691 5688 5684 5680 5678 5678 5679 5678 5673 5669 5665 5662 5660 5658 5657 5656 5654 5651 5647 5644 5643 5641 5637 5635 5633 5631 5628 5626 5623 5619 5616
5731 5727 5723 5718 5714 5710 5707 5703 5700 5696 5692 5687 5683 5678 5675 5672 5670 5669 5669 5668 5665 5660 5656 5652 5649 5648 5647 5645 5644 5641 5637 5635 5634 5631 5628 5625 5622 5619 5616 5613 5611 5608 5604
5724 5719 5715 5711 5708 5703 5700 5696 5692 5688 5684 5679 5675 5670 5666 5663 5661 5659 5658 5656 5654 5650 5645 5642 5639 5638 5636 5635 5633 5630 5628 5626 5624 5620 5616 5612 5609 5606 5603 5601 5598 5595 5592
5716 5711 5707 5703 5699 5695 5692 5688 5684 5681 5677 5672 5668 5662 5657 5654 5651 5649 5647 5645 5642 5639 5635 5632 5629 5627 5626 5624 5622 5619 5617 5615 5611 5607 5602 5599 5596 5594 5591 5589 5586 5584 5581
5708 5703 5699 5694 5690 5685 5682 5678 5674 5671 5669 5665 5660 5655 5650 5646 5642 5640 5638 5635 5632 5629 5626 5623 5621 5618 5616 5613 5611 5609 5606 5602 5598 5594 5590 5587 5585 5582 5579 5576 5573 5571 5568
5700 5696 5691 5686 5680 5674 5667 5662 5660 5654 5654 5654 5651 5647 5643 5636 5630 5628 5629 5626 5624 5621 5618 5616 5613 5610 5607 5603 5600 5597 5593 5590 5586 5582 5579 5576 5572 5569 5566 5564 5561 5558 5554
5693 5689 5686 5681 5674 5668 5660 5652 5646 5645 5643 5642 5639 5636 5631 5627 5623 5622 5620 5618 5616 5613 5611 5608 5604 5600 5597 5593 5589 5585 5581 5577 5574 5571 5567 5564 5561 5557 5554 5551 5549 5545 5542
5687 5684 5681 5676 5670 5664 5657 5651 5643 5635 5633 5631 5628 5626 5623 5619 5617 5615 5612 5610 5608 5605 5602 5599 5594 5590 5587 5583 5579 5575 5571 5567 5563 5559 5556 5552 5549 5546 5542 5539 5535 5533 5530
5681 5677 5674 5670 5665 5660 5654 5649 5643 5637 5631 5624 5619 5616 5614 5611 5609 5606 5603 5601 5599 5597 5594 5590 5585 5581 5577 5573 5569 5565 5561 5557 5553 5549 5545 5542 5539 5535 5531 5528 5524 5521 5519
5672 5669 5666 5663 5659 5655 5650 5645 5640 5634 5628 5621 5615 5609 5606 5603 5600 5598 5595 5593 5592 5589 5585 5581 5576 5572 5567 5563 5559 5555 5551 5547 5543 5539 5535 5532 5528 5525 5521 5518 5515 5510 5509
5662 5659 5656 5654 5651 5647 5643 5638 5633 5628 5622 5617 5612 5607 5602 5598 5595 5592 5589 5587 5584 5580 5576 5572 5567 5562 5558 5554 5550 5546 5542 5538 5534 5530 5526 5523 5519 5516 5513 5510 5507 5504 5501
5654 5650 5646 5645 5643 5638 5634 5630 5626 5621 5617 5611 5606 5601 5596 5594 5592 5588 5584 5580 5576 5571 5566 5562 5558 5554 5549 5545 5541 5537 5533 5529 5524 5521 5517 5514 5510 5507 5505 5502 5499 5497 5494
5647 5643 5640 5637 5633 5629 5625 5622 5619 5614 5610 5605 5599 5595 5590 5588 5586 5582 5577 5572 5567 5562 5557 5554 5550 5544 5539 5536 5532 5527 5523 5518 5514 5511 5508 5505 5503 5500 5497 5495 5492 5489 5486
5640 5636 5631 5628 5624 5619 5617 5614 5611 5607 5603 5599 5594 5590 5585 5581 5578 5574 5569 5564 5558 5554 5549 5544 5540 5535 5530 5526 5521 5516 5511 5506 5503 5501 5499 5497 5495 5493 5490 5487 5485 5482 5479
5632 5628 5624 5620 5616 5613 5610 5607 5604 5601 5597 5593 5589 5584 5579 5573 5570 5566 5561 5556 5551 5546 5541 5536 5531 5526 5522 5517 5511 5506 5501 5497 5495 5492 5490 5488 5487 5485 5483 5481 5479 5476 5473
5624 5620 5617 5613 5610 5606 5603 5600 5597 5594 5590 5587 5582 5578 5573 5568 5563 5559 5554 5549 5544 5539 5534 5529 5524 5518 5513 5508 5503 5498 5494 5491 5487 5484 5482 5480 5480 5478 5476 5474 5472 5470 5468
5616 5613 5610 5607 5604 5600 5597 5593 5590 5587 5584 5580 5576 5571 5567 5562 5558 5553 5548 5543 5538 5532 5527 5522 5517 5511 5506 5501 5496 5491 5487 5484 5481 5478 5475 5473 5473 5471 5469 5468 5467 5465 5463